Time,TemperatureF,DewpointF,PressureIn,WindDirection,WindDirectionDegrees,WindSpeedMPH,WindSpeedGustMPH,Humidity,HourlyPrecipIn,Conditions,Clouds,dailyrainin,SolarRadiationWatts/m^2,SoftwareType,DateUTC
2013-11-14 00:00:00,40.0,27.0,-100.00,ESE,108,4.0,6.0,61,-99.99,,,0.00,0.000000,,2013-11-14 07:00:00,
2013-11-14 00:42:00,40.0,27.0,-100.00,ESE,108,4.0,6.0,61,-99.99,,,0.00,0.000000,,2013-11-14 07:42:00,
2013-11-14 00:53:00,40.0,27.0,-100.00,ESE,108,4.0,6.0,61,-99.99,,,0.00,0.000000,,2013-11-14 07:53:00,
2013-11-14 01:00:00,36.0,26.0,-100.00,SE,127,3.0,7.0,65,-99.99,,,0.00,0.000000,,2013-11-14 08:00:00,
2013-11-14 01:42:00,36.0,26.0,-100.00,SE,127,3.0,7.0,65,-99.99,,,0.00,0.000000,,2013-11-14 08:42:00,
2013-11-14 01:53:00,36.0,26.0,-100.00,SE,127,3.0,7.0,65,-99.99,,,0.00,0.000000,,2013-11-14 08:53:00,
2013-11-14 02:00:00,33.0,25.0,-100.00,South,172,0.0,2.0,71,-99.99,,,0.00,0.000000,,2013-11-14 09:00:00,
2013-11-14 02:43:00,33.0,25.0,-100.00,South,172,0.0,2.0,71,-99.99,,,0.00,0.000000,,2013-11-14 09:43:00,
2013-11-14 02:53:00,33.0,25.0,-100.00,South,172,0.0,2.0,71,-99.99,,,0.00,0.000000,,2013-11-14 09:53:00,
2013-11-14 03:00:00,34.0,28.0,-100.00,South,176,1.0,3.0,77,-99.99,,,0.00,0.000000,,2013-11-14 10:00:00,
2013-11-14 03:52:00,34.0,28.0,-100.00,South,176,1.0,3.0,77,-99.99,,,0.00,0.000000,,2013-11-14 10:52:00,
2013-11-14 04:00:00,32.0,26.0,-100.00,SE,125,2.0,4.0,77,-99.99,,,0.00,0.000000,,2013-11-14 11:00:00,
2013-11-14 04:42:00,32.0,26.0,-100.00,SE,125,2.0,4.0,77,-99.99,,,0.00,0.000000,,2013-11-14 11:42:00,
2013-11-14 04:52:00,32.0,26.0,-100.00,SE,125,2.0,4.0,77,-99.99,,,0.00,0.000000,,2013-11-14 11:52:00,
2013-11-14 05:00:00,32.0,26.0,-100.00,North,0,0.0,0.0,79,-99.99,,,0.00,0.000000,,2013-11-14 12:00:00,
2013-11-14 05:42:00,32.0,26.0,-100.00,North,0,0.0,0.0,79,-99.99,,,0.00,0.000000,,2013-11-14 12:42:00,
2013-11-14 05:52:00,32.0,26.0,-100.00,North,0,0.0,0.0,79,-99.99,,,0.00,0.000000,,2013-11-14 12:52:00,
2013-11-14 06:00:00,30.0,25.0,-100.00,SE,140,1.0,3.0,80,-99.99,,,0.00,0.000000,,2013-11-14 13:00:00,
2013-11-14 06:42:00,30.0,25.0,-100.00,SE,140,1.0,3.0,80,-99.99,,,0.00,0.000000,,2013-11-14 13:42:00,
2013-11-14 06:52:00,30.0,25.0,-100.00,SE,140,1.0,3.0,80,-99.99,,,0.00,0.000000,,2013-11-14 13:52:00,
2013-11-14 07:00:00,30.0,25.0,-100.00,SSE,157,0.0,2.0,79,-99.99,,,0.00,0.000000,,2013-11-14 14:00:00,
2013-11-14 07:52:00,30.0,25.0,-100.00,SSE,157,0.0,2.0,79,-99.99,,,0.00,0.000000,,2013-11-14 14:52:00,
2013-11-14 08:00:00,31.0,25.0,-100.00,SSE,161,0.0,3.0,75,-99.99,,,0.00,8.720000,,2013-11-14 15:00:00,
2013-11-14 08:43:00,31.0,25.0,-100.00,SSE,161,0.0,3.0,75,-99.99,,,0.00,8.720000,,2013-11-14 15:43:00,
2013-11-14 08:53:00,31.0,25.0,-100.00,SSE,161,0.0,3.0,75,-99.99,,,0.00,8.720000,,2013-11-14 15:53:00,
2013-11-14 09:00:00,30.0,26.0,-100.00,NNE,20,0.0,3.0,83,-99.99,,,0.00,125.750000,,2013-11-14 16:00:00,
2013-11-14 09:42:00,30.0,26.0,-100.00,NNE,20,0.0,3.0,83,-99.99,,,0.00,125.750000,,2013-11-14 16:42:00,
2013-11-14 09:52:00,30.0,26.0,-100.00,NNE,20,0.0,3.0,83,-99.99,,,0.00,125.750000,,2013-11-14 16:52:00,
2013-11-14 10:00:00,33.0,28.0,-100.00,NNW,337,1.0,4.0,84,-99.99,,,0.00,113.309998,,2013-11-14 17:00:00,
2013-11-14 10:52:00,33.0,28.0,-100.00,NNW,337,1.0,4.0,84,-99.99,,,0.00,113.309998,,2013-11-14 17:52:00,
2013-11-14 11:00:00,37.0,33.0,-100.00,West,273,1.0,3.0,83,-99.99,,,0.00,316.350006,,2013-11-14 18:00:00,
2013-11-14 11:42:00,37.0,33.0,-100.00,West,273,1.0,3.0,83,-99.99,,,0.00,316.350006,,2013-11-14 18:42:00,
2013-11-14 11:52:00,37.0,33.0,-100.00,West,273,1.0,3.0,83,-99.99,,,0.00,316.350006,,2013-11-14 18:52:00,
2013-11-14 12:00:00,40.0,29.0,-100.00,West,262,2.0,4.0,64,-99.99,,,0.00,265.329987,,2013-11-14 19:00:00,
2013-11-14 12:42:00,40.0,29.0,-100.00,West,262,2.0,4.0,64,-99.99,,,0.00,265.329987,,2013-11-14 19:42:00,
2013-11-14 12:52:00,40.0,29.0,-100.00,West,262,2.0,4.0,64,-99.99,,,0.00,265.329987,,2013-11-14 19:52:00,
2013-11-14 13:00:00,42.0,30.0,-100.00,NNW,328,3.0,6.0,61,-99.99,,,0.00,406.649994,,2013-11-14 20:00:00,
2013-11-14 13:52:00,42.0,30.0,-100.00,NNW,328,3.0,6.0,61,-99.99,,,0.00,406.649994,,2013-11-14 20:52:00,
2013-11-14 14:00:00,42.0,31.0,-100.00,NNW,336,2.0,4.0,64,-99.99,,,0.00,208.149994,,2013-11-14 21:00:00,
2013-11-14 14:53:00,42.0,31.0,-100.00,NNW,336,2.0,4.0,64,-99.99,,,0.00,208.149994,,2013-11-14 21:53:00,
2013-11-14 15:00:00,44.0,29.0,-100.00,NW,304,2.0,4.0,55,-99.99,,,0.00,193.509995,,2013-11-14 22:00:00,
2013-11-14 15:43:00,44.0,29.0,-100.00,NW,304,2.0,4.0,55,-99.99,,,0.00,193.509995,,2013-11-14 22:43:00,
2013-11-14 15:53:00,44.0,29.0,-100.00,NW,304,2.0,4.0,55,-99.99,,,0.00,193.509995,,2013-11-14 22:53:00,
2013-11-14 16:00:00,43.0,29.0,-100.00,WNW,292,0.0,2.0,56,-99.99,,,0.00,85.769997,,2013-11-14 23:00:00,
2013-11-14 16:43:00,43.0,29.0,-100.00,WNW,292,0.0,2.0,56,-99.99,,,0.00,85.769997,,2013-11-14 23:43:00,
2013-11-14 16:52:00,43.0,29.0,-100.00,WNW,292,0.0,2.0,56,-99.99,,,0.00,85.769997,,2013-11-14 23:52:00,
2013-11-14 17:00:00,37.0,27.0,-100.00,ESE,108,0.0,4.0,64,-99.99,,,0.00,10.810000,,2013-11-15 00:00:00,
2013-11-14 17:42:00,37.0,27.0,-100.00,ESE,108,0.0,4.0,64,-99.99,,,0.00,10.810000,,2013-11-15 00:42:00,
2013-11-14 17:52:00,37.0,27.0,-100.00,ESE,108,0.0,4.0,64,-99.99,,,0.00,10.810000,,2013-11-15 00:52:00,
2013-11-14 19:00:00,35.0,28.0,-100.00,SSW,208,1.0,5.0,78,-99.99,,,0.00,0.000000,,2013-11-15 02:00:00,
2013-11-14 19:52:00,35.0,28.0,-100.00,SSW,208,1.0,5.0,78,-99.99,,,0.00,0.000000,,2013-11-15 02:52:00,
2013-11-14 20:00:00,33.0,27.0,-100.00,SSE,166,2.0,4.0,78,-99.99,,,0.00,0.000000,,2013-11-15 03:00:00,
2013-11-14 20:44:00,33.0,27.0,-100.00,SSE,166,2.0,4.0,78,-99.99,,,0.00,0.000000,,2013-11-15 03:44:00,
2013-11-14 20:54:00,33.0,27.0,-100.00,SSE,166,2.0,4.0,78,-99.99,,,0.00,0.000000,,2013-11-15 03:54:00,
2013-11-14 21:00:00,34.0,28.0,-100.00,East,99,1.0,4.0,76,-99.99,,,0.00,0.000000,,2013-11-15 04:00:00,
2013-11-14 21:42:00,34.0,28.0,-100.00,East,99,1.0,4.0,76,-99.99,,,0.00,0.000000,,2013-11-15 04:42:00,
2013-11-14 21:53:00,34.0,28.0,-100.00,East,99,1.0,4.0,76,-99.99,,,0.00,0.000000,,2013-11-15 04:53:00,
2013-11-14 22:00:00,34.0,25.0,-100.00,NNE,19,1.0,3.0,66,-99.99,,,0.00,0.000000,,2013-11-15 05:00:00,
2013-11-14 22:43:00,34.0,25.0,-100.00,NNE,19,1.0,3.0,66,-99.99,,,0.00,0.000000,,2013-11-15 05:43:00,
2013-11-14 22:53:00,34.0,25.0,-100.00,NNE,19,1.0,3.0,66,-99.99,,,0.00,0.000000,,2013-11-15 05:53:00,
2013-11-14 23:00:00,35.0,28.0,-100.00,SSE,158,2.0,4.0,74,-99.99,,,0.00,0.000000,,2013-11-15 06:00:00,
2013-11-14 23:43:00,35.0,28.0,-100.00,SSE,158,2.0,4.0,74,-99.99,,,0.00,0.000000,,2013-11-15 06:43:00,
2013-11-14 23:53:00,35.0,28.0,-100.00,SSE,158,2.0,4.0,74,-99.99,,,0.00,0.000000,,2013-11-15 06:53:00,